Time,TemperatureF,DewpointF,PressureIn,WindDirection,WindDirectionDegrees,WindSpeedMPH,WindSpeedGustMPH,Humidity,HourlyPrecipIn,Conditions,Clouds,dailyrainin,SoftwareType,DateUTC
2013-02-26 00:00:00,49.4,48.0,29.96,NNW,348,3.0,11.0,95,0.00,,,0.28,weatherlink.com 1.10,2013-02-26 05:00:00,
2013-02-26 00:15:00,50.4,49.0,29.97,East,90,2.0,9.0,95,0.00,,,0.00,weatherlink.com 1.10,2013-02-26 05:15:00,
2013-02-26 00:30:00,50.9,50.0,29.95,East,84,5.0,7.0,95,0.00,,,0.00,weatherlink.com 1.10,2013-02-26 05:30:00,
2013-02-26 00:45:00,51.2,50.0,29.95,ENE,61,3.0,6.0,95,0.00,,,0.00,weatherlink.com 1.10,2013-02-26 05:45:00,
2013-02-26 01:00:00,51.7,50.0,29.95,ENE,65,1.0,8.0,95,0.00,,,0.00,weatherlink.com 1.10,2013-02-26 06:00:00,
2013-02-26 01:15:00,52.2,51.0,29.95,East,99,2.0,8.0,96,0.00,,,0.00,weatherlink.com 1.10,2013-02-26 06:15:00,
2013-02-26 01:30:00,52.2,51.0,29.94,SE,146,2.0,9.0,96,0.01,,,0.01,weatherlink.com 1.10,2013-02-26 06:30:00,
2013-02-26 01:45:00,52.3,51.0,29.94,South,183,4.0,8.0,96,0.01,,,0.01,weatherlink.com 1.10,2013-02-26 06:45:00,
2013-02-26 02:00:00,52.4,52.0,29.92,East,82,3.0,6.0,97,0.02,,,0.02,weatherlink.com 1.10,2013-02-26 07:00:00,
2013-02-26 02:15:00,52.6,52.0,29.91,ESE,103,3.0,7.0,97,0.02,,,0.03,weatherlink.com 1.10,2013-02-26 07:15:00,
2013-02-26 02:30:00,52.9,52.0,29.90,East,90,3.0,7.0,97,0.02,,,0.03,weatherlink.com 1.10,2013-02-26 07:30:00,
2013-02-26 02:45:00,53.3,53.0,29.89,ENE,67,3.0,5.0,98,0.02,,,0.03,weatherlink.com 1.10,2013-02-26 07:45:00,
2013-02-26 03:01:00,53.8,53.0,29.88,ESE,113,2.0,5.0,98,0.02,,,0.04,weatherlink.com 1.10,2013-02-26 08:01:00,
2013-02-26 03:16:00,54.1,54.0,29.87,ESE,103,6.0,6.0,98,0.04,,,0.07,weatherlink.com 1.10,2013-02-26 08:16:00,
2013-02-26 03:31:00,54.5,54.0,29.85,SE,139,2.0,5.0,98,0.06,,,0.09,weatherlink.com 1.10,2013-02-26 08:31:00,
2013-02-26 03:46:00,55.1,55.0,29.86,SE,132,3.0,7.0,98,0.10,,,0.13,weatherlink.com 1.10,2013-02-26 08:46:00,
2013-02-26 04:01:00,55.4,55.0,29.84,ENE,65,2.0,6.0,98,0.12,,,0.16,weatherlink.com 1.10,2013-02-26 09:01:00,
2013-02-26 04:16:00,55.2,55.0,29.84,SE,141,2.0,6.0,98,0.11,,,0.18,weatherlink.com 1.10,2013-02-26 09:16:00,
2013-02-26 04:31:00,55.6,55.0,29.82,East,79,1.0,7.0,98,0.13,,,0.22,weatherlink.com 1.10,2013-02-26 09:31:00,
2013-02-26 04:46:00,56.2,56.0,29.82,East,88,1.0,5.0,98,0.09,,,0.22,weatherlink.com 1.10,2013-02-26 09:46:00,
2013-02-26 05:01:00,56.5,56.0,29.81,NE,56,1.0,4.0,98,0.10,,,0.26,weatherlink.com 1.10,2013-02-26 10:01:00,
2013-02-26 05:16:00,56.9,56.0,29.80,East,94,1.0,8.0,98,0.12,,,0.30,weatherlink.com 1.10,2013-02-26 10:16:00,
2013-02-26 05:31:00,57.4,57.0,29.80,East,86,2.0,5.0,99,0.08,,,0.30,weatherlink.com 1.10,2013-02-26 10:31:00,
2013-02-26 05:46:00,57.9,58.0,29.79,East,89,2.0,8.0,99,0.08,,,0.30,weatherlink.com 1.10,2013-02-26 10:46:00,
2013-02-26 06:01:00,58.4,58.0,29.79,East,82,2.0,3.0,99,0.03,,,0.30,weatherlink.com 1.10,2013-02-26 11:01:00,
2013-02-26 06:16:00,59.4,59.0,29.79,East,100,0.0,4.0,99,0.00,,,0.30,weatherlink.com 1.10,2013-02-26 11:16:00,
2013-02-26 06:31:00,60.6,60.0,29.77,ENE,78,1.0,3.0,99,0.00,,,0.30,weatherlink.com 1.10,2013-02-26 11:31:00,
2013-02-26 06:46:00,61.6,61.0,29.77,ESE,107,1.0,5.0,99,0.00,,,0.30,weatherlink.com 1.10,2013-02-26 11:46:00,
2013-02-26 07:01:00,62.1,62.0,29.76,SSE,149,1.0,5.0,99,0.00,,,0.30,weatherlink.com 1.10,2013-02-26 12:01:00,
2013-02-26 07:16:00,62.4,62.0,29.75,ESE,109,2.0,5.0,99,0.00,,,0.30,weatherlink.com 1.10,2013-02-26 12:16:00,
2013-02-26 07:31:00,62.0,62.0,29.75,West,277,3.0,6.0,99,0.00,,,0.30,weatherlink.com 1.10,2013-02-26 12:31:00,
2013-02-26 07:46:00,61.7,61.0,29.74,North,358,1.0,5.0,98,0.01,,,0.31,weatherlink.com 1.10,2013-02-26 12:46:00,
2013-02-26 08:01:00,61.3,61.0,29.74,South,185,1.0,10.0,99,0.03,,,0.33,weatherlink.com 1.10,2013-02-26 13:01:00,
2013-02-26 08:17:00,62.9,63.0,29.75,SE,127,2.0,7.0,99,0.04,,,0.34,weatherlink.com 1.10,2013-02-26 13:17:00,
2013-02-26 08:32:00,63.7,64.0,29.75,SE,142,0.0,7.0,99,0.07,,,0.37,weatherlink.com 1.10,2013-02-26 13:32:00,
2013-02-26 08:47:00,63.9,64.0,29.75,SE,140,1.0,6.0,99,0.15,,,0.46,weatherlink.com 1.10,2013-02-26 13:47:00,
2013-02-26 09:02:00,65.2,65.0,29.74,SE,142,2.0,9.0,99,0.22,,,0.55,weatherlink.com 1.10,2013-02-26 14:02:00,
2013-02-26 09:17:00,66.0,66.0,29.74,East,83,2.0,9.0,99,0.22,,,0.56,weatherlink.com 1.10,2013-02-26 14:17:00,
2013-02-26 09:32:00,65.8,65.0,29.73,WSW,256,0.0,7.0,98,0.21,,,0.58,weatherlink.com 1.10,2013-02-26 14:32:00,
2013-02-26 09:47:00,65.3,65.0,29.73,East,86,2.0,6.0,98,0.13,,,0.60,weatherlink.com 1.10,2013-02-26 14:47:00,
2013-02-26 10:02:00,65.4,65.0,29.71,SE,142,3.0,6.0,99,0.18,,,0.73,weatherlink.com 1.10,2013-02-26 15:02:00,
2013-02-26 10:17:00,65.5,65.0,29.71,SSE,154,1.0,5.0,99,0.16,,,0.73,weatherlink.com 1.10,2013-02-26 15:17:00,
2013-02-26 10:32:00,65.5,65.0,29.73,SE,134,3.0,12.0,99,0.16,,,0.74,weatherlink.com 1.10,2013-02-26 15:32:00,
2013-02-26 10:47:00,65.6,65.0,29.72,SSW,198,3.0,10.0,98,0.14,,,0.75,weatherlink.com 1.10,2013-02-26 15:47:00,
2013-02-26 11:02:00,65.3,65.0,29.72,East,96,6.0,13.0,98,0.04,,,0.77,weatherlink.com 1.10,2013-02-26 16:02:00,
2013-02-26 11:17:00,66.9,66.0,29.72,SSE,160,4.0,22.0,97,0.04,,,0.77,weatherlink.com 1.10,2013-02-26 16:17:00,
2013-02-26 11:32:00,66.8,66.0,29.70,SW,231,5.0,15.0,97,0.03,,,0.77,weatherlink.com 1.10,2013-02-26 16:32:00,
2013-02-26 11:47:00,66.7,65.0,29.69,SSE,159,5.0,16.0,95,0.02,,,0.77,weatherlink.com 1.10,2013-02-26 16:47:00,
2013-02-26 12:02:00,67.7,66.0,29.68,SW,228,10.0,15.0,93,0.00,,,0.77,weatherlink.com 1.10,2013-02-26 17:02:00,
2013-02-26 12:17:00,69.1,66.0,29.67,SSW,206,2.0,16.0,89,0.00,,,0.77,weatherlink.com 1.10,2013-02-26 17:17:00,
2013-02-26 12:32:00,69.6,66.0,29.66,South,188,4.0,14.0,87,0.00,,,0.77,weatherlink.com 1.10,2013-02-26 17:32:00,
2013-02-26 12:47:00,69.0,66.0,29.65,SW,218,11.0,16.0,89,0.00,,,0.77,weatherlink.com 1.10,2013-02-26 17:47:00,
2013-02-26 13:02:00,69.4,66.0,29.64,SW,235,9.0,19.0,89,0.00,,,0.77,weatherlink.com 1.10,2013-02-26 18:02:00,
2013-02-26 13:17:00,70.7,67.0,29.62,SSW,205,17.0,27.0,87,0.00,,,0.77,weatherlink.com 1.10,2013-02-26 18:17:00,
2013-02-26 13:32:00,70.4,66.0,29.61,SW,225,15.0,33.0,86,0.00,,,0.77,weatherlink.com 1.10,2013-02-26 18:32:00,
2013-02-26 13:47:00,70.0,66.0,29.61,SSW,204,14.0,30.0,87,0.00,,,0.77,weatherlink.com 1.10,2013-02-26 18:47:00,
2013-02-26 14:03:00,70.1,66.0,29.60,WSW,239,10.0,23.0,87,0.00,,,0.77,weatherlink.com 1.10,2013-02-26 19:03:00,
2013-02-26 14:18:00,70.3,66.0,29.60,WSW,239,5.0,27.0,87,0.00,,,0.77,weatherlink.com 1.10,2013-02-26 19:18:00,
2013-02-26 14:33:00,70.3,66.0,29.60,WSW,252,7.0,23.0,87,0.00,,,0.77,weatherlink.com 1.10,2013-02-26 19:33:00,
2013-02-26 14:48:00,70.3,66.0,29.60,WSW,250,14.0,23.0,85,0.00,,,0.77,weatherlink.com 1.10,2013-02-26 19:48:00,
2013-02-26 15:03:00,69.6,65.0,29.61,SW,233,10.0,27.0,86,0.00,,,0.77,weatherlink.com 1.10,2013-02-26 20:03:00,
2013-02-26 15:18:00,69.0,65.0,29.61,West,269,13.0,22.0,86,0.00,,,0.77,weatherlink.com 1.10,2013-02-26 20:18:00,
2013-02-26 15:33:00,69.4,65.0,29.61,WSW,240,20.0,31.0,86,0.00,,,0.77,weatherlink.com 1.10,2013-02-26 20:33:00,
2013-02-26 15:48:00,69.3,65.0,29.61,SW,233,18.0,30.0,87,0.00,,,0.77,weatherlink.com 1.10,2013-02-26 20:48:00,
2013-02-26 16:03:00,69.0,65.0,29.61,WSW,239,12.0,25.0,88,0.00,,,0.77,weatherlink.com 1.10,2013-02-26 21:03:00,
2013-02-26 16:18:00,68.5,65.0,29.61,SW,235,12.0,21.0,89,0.00,,,0.77,weatherlink.com 1.10,2013-02-26 21:18:00,
2013-02-26 16:33:00,67.8,65.0,29.61,WSW,248,12.0,22.0,89,0.00,,,0.77,weatherlink.com 1.10,2013-02-26 21:33:00,
2013-02-26 16:48:00,67.7,65.0,29.61,SW,233,7.0,19.0,90,0.00,,,0.77,weatherlink.com 1.10,2013-02-26 21:48:00,
2013-02-26 17:03:00,68.1,65.0,29.61,SW,224,13.0,19.0,88,0.00,,,0.77,weatherlink.com 1.10,2013-02-26 22:03:00,
2013-02-26 17:18:00,67.3,64.0,29.61,WSW,240,13.0,18.0,89,0.00,,,0.77,weatherlink.com 1.10,2013-02-26 22:18:00,
2013-02-26 17:33:00,67.0,63.0,29.61,SW,233,8.0,17.0,88,0.00,,,0.77,weatherlink.com 1.10,2013-02-26 22:33:00,
2013-02-26 17:48:00,66.3,63.0,29.61,WSW,245,11.0,12.0,89,0.00,,,0.77,weatherlink.com 1.10,2013-02-26 22:48:00,
2013-02-26 18:03:00,65.6,62.0,29.61,WSW,239,5.0,12.0,89,0.00,,,0.77,weatherlink.com 1.10,2013-02-26 23:03:00,
2013-02-26 18:18:00,65.2,62.0,29.61,WSW,252,7.0,12.0,88,0.00,,,0.77,weatherlink.com 1.10,2013-02-26 23:18:00,
2013-02-26 18:33:00,64.9,61.0,29.62,WSW,252,3.0,10.0,87,0.00,,,0.77,weatherlink.com 1.10,2013-02-26 23:33:00,
2013-02-26 18:48:00,64.4,61.0,29.62,SSW,201,2.0,11.0,87,0.00,,,0.77,weatherlink.com 1.10,2013-02-26 23:48:00,
2013-02-26 19:03:00,63.7,60.0,29.63,WSW,252,2.0,6.0,88,0.00,,,0.77,weatherlink.com 1.10,2013-02-27 00:03:00,
2013-02-26 19:18:00,63.3,60.0,29.64,WSW,248,4.0,10.0,88,0.00,,,0.77,weatherlink.com 1.10,2013-02-27 00:18:00,
2013-02-26 19:33:00,63.5,59.0,29.65,WSW,245,3.0,9.0,86,0.00,,,0.77,weatherlink.com 1.10,2013-02-27 00:33:00,
2013-02-26 19:48:00,64.0,59.0,29.65,SW,225,2.0,11.0,83,0.00,,,0.77,weatherlink.com 1.10,2013-02-27 00:48:00,
2013-02-26 20:03:00,63.7,59.0,29.66,SW,226,7.0,9.0,83,0.00,,,0.77,weatherlink.com 1.10,2013-02-27 01:03:00,
2013-02-26 20:18:00,63.6,58.0,29.66,West,271,2.0,15.0,81,0.00,,,0.77,weatherlink.com 1.10,2013-02-27 01:18:00,
2013-02-26 20:33:00,63.3,57.0,29.66,WSW,238,3.0,9.0,81,0.00,,,0.77,weatherlink.com 1.10,2013-02-27 01:33:00,
2013-02-26 20:48:00,63.0,57.0,29.67,SW,222,6.0,8.0,80,0.00,,,0.77,weatherlink.com 1.10,2013-02-27 01:48:00,
2013-02-26 21:03:00,62.8,57.0,29.67,WSW,245,5.0,8.0,80,0.00,,,0.77,weatherlink.com 1.10,2013-02-27 02:03:00,
2013-02-26 21:18:00,62.6,56.0,29.68,SW,233,4.0,8.0,79,0.00,,,0.77,weatherlink.com 1.10,2013-02-27 02:18:00,
2013-02-26 21:33:00,62.8,56.0,29.68,WSW,255,3.0,7.0,77,0.00,,,0.77,weatherlink.com 1.10,2013-02-27 02:33:00,
2013-02-26 21:48:00,63.8,55.0,29.69,SW,231,8.0,12.0,73,0.00,,,0.77,weatherlink.com 1.10,2013-02-27 02:48:00,
2013-02-26 22:03:00,64.8,54.0,29.69,SW,235,7.0,16.0,68,0.00,,,0.77,weatherlink.com 1.10,2013-02-27 03:03:00,
2013-02-26 22:18:00,65.3,54.0,29.69,SW,231,11.0,13.0,66,0.00,,,0.77,weatherlink.com 1.10,2013-02-27 03:18:00,
2013-02-26 22:33:00,65.0,53.0,29.70,WSW,257,6.0,13.0,66,0.00,,,0.77,weatherlink.com 1.10,2013-02-27 03:33:00,
2013-02-26 22:48:00,65.0,53.0,29.71,WSW,250,7.0,13.0,66,0.00,,,0.77,weatherlink.com 1.10,2013-02-27 03:48:00,
2013-02-26 23:03:00,65.0,53.0,29.70,West,269,9.0,15.0,65,0.00,,,0.77,weatherlink.com 1.10,2013-02-27 04:03:00,
2013-02-26 23:18:00,65.0,53.0,29.70,West,273,14.0,15.0,65,0.00,,,0.77,weatherlink.com 1.10,2013-02-27 04:18:00,
2013-02-26 23:33:00,64.6,53.0,29.70,WSW,253,7.0,13.0,66,0.00,,,0.77,weatherlink.com 1.10,2013-02-27 04:33:00,
2013-02-26 23:48:00,64.1,53.0,29.71,WSW,256,9.0,12.0,67,0.00,,,0.77,weatherlink.com 1.10,2013-02-27 04:48:00,